contact:dominique.lefevre@mio.osupytheas.fr, maurice.libes@osupytheas.fr, didier.mallarino@osupytheas.fr
Project:EMSO http://www.emso-fr.org/EMSO-France
Depth: 2436.0 m
Title:EMSO Ligure Ouest : Data MII capteur AQUADOPP
Date,Latitude,Longitude,X_East,Y_North,Z_Up,Amplitude_X,Amplitude_Y,Amplitude_Z,Batterie,SoundSpeed,Heading,Pitch,Roll,Pressure,TIS,Speed,Direction
, degrees North, degrees East, m.s-1, m.s-1,m.s-1, 1, 1, 1, Volt, m.s-1, degree, degree, degree, dbar, degree_C, m.s-1, degree
2023-01-18T00:04:03,42.805,6.029,-0.011,0.018,0.015,99.0,100.0,100.0,13.4,1505.2,320.9,-0.7,1.8,2471.125,13.29,0.021,328.6
2023-01-18T00:07:03,42.805,6.029,-0.012,0.016,0.032,99.0,100.0,100.0,13.4,1505.2,331.3,-0.8,1.8,2471.12,13.29,0.02,323.1
2023-01-18T00:10:03,42.805,6.029,-0.033,0.013,-0.017,99.0,100.0,100.0,13.4,1505.2,331.4,-0.7,1.8,2471.134,13.29,0.035,291.5
2023-01-18T00:13:03,42.805,6.029,-0.056,0.005,-0.037,102.0,98.0,101.0,13.4,1505.2,327.3,-0.8,1.8,2471.093,13.29,0.056,275.1
2023-01-18T00:16:03,42.805,6.029,-0.052,0.019,-0.002,101.0,99.0,99.0,13.3,1505.2,322.6,-0.8,1.8,2471.131,13.29,0.055,290.1
2023-01-18T00:19:03,42.805,6.029,-0.062,0.044,0.027,99.0,100.0,101.0,13.4,1505.2,316.6,-0.8,1.8,2471.14,13.29,0.076,305.4
2023-01-18T00:22:03,42.805,6.029,-0.053,0.016,-0.011,100.0,100.0,100.0,13.4,1505.2,318.1,-0.8,1.8,2471.106,13.29,0.055,286.8
2023-01-18T00:25:03,42.805,6.029,-0.033,-0.006,0.017,100.0,100.0,100.0,13.4,1505.2,315.0,-0.8,1.8,2471.079,13.29,0.033,259.7
2023-01-18T00:28:03,42.805,6.029,-0.014,-0.017,-0.043,100.0,100.0,100.0,13.4,1505.2,320.5,-0.7,1.8,2471.112,13.29,0.022,219.5
2023-01-18T00:31:03,42.805,6.029,-0.022,0.014,0.003,101.0,99.0,99.0,13.3,1505.2,335.1,-0.8,1.8,2471.094,13.29,0.026,302.5
2023-01-18T00:34:03,42.805,6.029,-0.024,-0.002,-0.007,100.0,101.0,100.0,13.3,1505.2,318.3,-0.7,1.8,2471.069,13.29,0.024,265.2
2023-01-18T00:37:03,42.805,6.029,-0.014,-0.004,-0.044,99.0,100.0,99.0,13.4,1505.2,323.2,-0.8,1.8,2471.111,13.29,0.014,254.1
2023-01-18T00:40:03,42.805,6.029,-0.007,-0.019,-0.042,101.0,100.0,99.0,13.4,1505.2,339.5,-0.8,1.9,2471.153,13.29,0.02,200.2
2023-01-18T00:43:03,42.805,6.029,-0.038,0.005,-0.044,100.0,101.0,100.0,13.4,1505.2,316.5,-0.7,1.8,2471.092,13.29,0.038,277.5
2023-01-18T00:46:03,42.805,6.029,-0.013,0.004,-0.012,99.0,100.0,100.0,13.4,1505.2,323.7,-0.8,1.8,2471.136,13.29,0.013,287.1
2023-01-18T00:49:03,42.805,6.029,-0.021,0.013,-0.001,99.0,100.0,100.0,13.4,1505.2,334.2,-0.7,1.8,2471.104,13.29,0.024,301.8
2023-01-18T00:52:03,42.805,6.029,-0.044,0.014,-0.019,100.0,100.0,100.0,13.3,1505.2,326.9,-0.7,1.8,2471.092,13.29,0.046,287.6
2023-01-18T00:55:03,42.805,6.029,-0.043,-0.005,-0.004,99.0,100.0,100.0,13.4,1505.2,320.5,-0.7,1.8,2471.109,13.29,0.043,263.4
2023-01-18T00:58:03,42.805,6.029,-0.017,0.016,0.018,99.0,100.0,100.0,13.4,1505.2,335.9,-0.7,1.8,2471.088,13.29,0.023,313.3
2023-01-18T01:04:03,42.805,6.029,-0.019,0.046,0.044,103.0,103.0,101.0,13.3,1505.2,338.2,-0.7,1.8,2471.165,13.29,0.049,337.6
2023-01-18T01:07:03,42.805,6.029,-0.036,0.023,0.011,100.0,100.0,100.0,13.4,1505.2,324.3,-0.7,1.9,2471.156,13.29,0.042,302.6
2023-01-18T01:10:03,42.805,6.029,-0.008,-0.013,-0.018,99.0,100.0,100.0,13.4,1505.2,317.2,-0.7,1.8,2471.157,13.29,0.015,211.6
2023-01-18T01:13:03,42.805,6.029,-0.026,-0.006,-0.048,101.0,99.0,99.0,13.4,1505.2,337.5,-0.7,1.8,2471.151,13.29,0.026,257.0
2023-01-18T01:16:03,42.805,6.029,-0.035,0.029,0.022,100.0,99.0,100.0,13.4,1505.2,329.0,-0.8,1.8,2471.156,13.29,0.045,309.6
2023-01-18T01:19:03,42.805,6.029,-0.03,0.015,-0.008,99.0,100.0,100.0,13.4,1505.2,331.4,-0.8,1.8,2471.135,13.29,0.033,296.6
2023-01-18T01:22:03,42.805,6.029,-0.024,0.04,0.06,100.0,99.0,100.0,13.4,1505.2,329.6,-0.7,1.8,2471.161,13.29,0.046,329.0
2023-01-18T01:25:03,42.805,6.029,-0.055,0.005,-0.07,100.0,99.0,99.0,13.4,1505.2,333.8,-0.8,1.9,2471.134,13.29,0.055,275.2
2023-01-18T01:28:03,42.805,6.029,-0.007,-0.024,-0.061,101.0,100.0,99.0,13.4,1505.2,325.4,-0.8,1.8,2471.124,13.29,0.025,196.3
2023-01-18T01:31:03,42.805,6.029,-0.033,-0.003,-0.042,99.0,99.0,100.0,13.4,1505.2,337.1,-0.8,1.8,2471.124,13.29,0.033,264.8
2023-01-18T01:34:03,42.805,6.029,-0.028,-0.004,-0.051,99.0,99.0,100.0,13.3,1505.2,331.7,-0.8,1.8,2471.157,13.29,0.028,261.9
2023-01-18T01:37:03,42.805,6.029,-0.004,-0.009,-0.023,98.0,100.0,100.0,13.4,1505.2,324.3,-0.8,1.8,2471.146,13.29,0.009,204.0
2023-01-18T01:40:03,42.805,6.029,-0.045,0.033,-0.022,99.0,100.0,100.0,13.4,1505.2,338.7,-0.7,1.8,2471.147,13.29,0.055,306.3
2023-01-18T01:43:03,42.805,6.029,-0.019,-0.009,-0.02,99.0,101.0,99.0,13.4,1505.2,318.6,-0.7,1.8,2471.151,13.29,0.021,244.7
2023-01-18T01:46:03,42.805,6.029,-0.037,0.0,-0.046,100.0,99.0,100.0,13.4,1505.2,330.4,-0.8,1.8,2471.127,13.29,0.037,270.0
2023-01-18T01:49:03,42.805,6.029,-0.036,0.004,-0.002,100.0,100.0,100.0,13.3,1505.2,319.2,-0.7,1.8,2471.156,13.29,0.036,276.3
2023-01-18T01:52:03,42.805,6.029,-0.029,0.008,-0.019,100.0,100.0,100.0,13.4,1505.2,327.7,-0.8,1.8,2471.161,13.29,0.03,285.4
2023-01-18T01:55:03,42.805,6.029,-0.019,0.0,-0.021,100.0,100.0,99.0,13.4,1505.2,324.8,-0.8,1.8,2471.131,13.29,0.019,270.0
2023-01-18T01:58:03,42.805,6.029,0.003,-0.02,-0.053,100.0,99.0,101.0,13.3,1505.2,317.5,-0.8,1.8,2471.144,13.29,0.02,171.5
2023-01-18T02:04:03,42.805,6.029,-0.011,-0.005,-0.021,100.0,101.0,100.0,13.4,1505.2,324.2,-0.8,1.8,2471.197,13.28,0.012,245.6
2023-01-18T02:07:03,42.805,6.029,-0.022,0.001,-0.019,101.0,101.0,100.0,13.3,1505.2,338.5,-0.7,1.8,2471.169,13.29,0.022,272.6
2023-01-18T02:10:03,42.805,6.029,-0.028,-0.002,0.011,100.0,101.0,101.0,13.3,1505.2,323.2,-0.7,1.8,2471.219,13.29,0.028,265.9
2023-01-18T02:13:03,42.805,6.029,-0.014,-0.004,-0.021,100.0,101.0,101.0,13.3,1505.2,329.6,-0.8,1.8,2471.214,13.29,0.014,254.1
2023-01-18T02:16:03,42.805,6.029,-0.018,0.004,-0.027,101.0,100.0,100.0,13.4,1505.2,336.5,-0.8,1.8,2471.217,13.29,0.018,282.5
2023-01-18T02:19:03,42.805,6.029,-0.02,-0.001,-0.039,101.0,100.0,100.0,13.4,1505.2,322.5,-0.8,1.8,2471.202,13.29,0.02,267.1
2023-01-18T02:22:03,42.805,6.029,-0.028,0.01,-0.019,101.0,101.0,100.0,13.3,1505.2,323.7,-0.8,1.8,2471.177,13.29,0.029,289.6
2023-01-18T02:25:03,42.805,6.029,-0.022,0.007,-0.002,101.0,101.0,100.0,13.3,1505.2,327.0,-0.8,1.8,2471.185,13.29,0.023,287.6
2023-01-18T02:28:03,42.805,6.029,-0.037,0.008,-0.011,101.0,101.0,101.0,13.3,1505.2,320.0,-0.8,1.8,2471.178,13.29,0.037,282.2
2023-01-18T02:31:03,42.805,6.029,-0.018,-0.015,-0.052,101.0,102.0,100.0,13.3,1505.2,335.7,-0.7,1.8,2471.183,13.29,0.023,230.2
2023-01-18T02:34:03,42.805,6.029,-0.007,0.013,0.022,101.0,101.0,101.0,13.3,1505.2,320.9,-0.7,1.8,2471.208,13.29,0.014,331.7
2023-01-18T02:37:03,42.805,6.029,-0.04,-0.011,-0.032,102.0,101.0,100.0,13.4,1505.2,319.5,-0.7,1.8,2471.22,13.29,0.041,254.6
2023-01-18T02:40:03,42.805,6.029,-0.05,0.012,-0.005,99.0,102.0,102.0,13.4,1505.2,324.2,-0.8,1.8,2471.21,13.29,0.051,283.5
2023-01-18T02:43:03,42.805,6.029,-0.018,-0.002,-0.029,100.0,100.0,101.0,13.4,1505.2,322.6,-0.7,1.8,2471.22,13.29,0.018,263.7
2023-01-18T02:46:03,42.805,6.029,-0.044,0.007,-0.062,101.0,102.0,101.0,13.4,1505.2,319.5,-0.7,1.8,2471.18,13.29,0.044,279.0
2023-01-18T02:49:03,42.805,6.029,-0.009,0.017,0.023,101.0,102.0,101.0,13.4,1505.2,329.7,-0.8,1.8,2471.205,13.29,0.019,332.1
2023-01-18T02:52:03,42.805,6.029,-0.011,0.004,-0.007,101.0,102.0,102.0,13.4,1505.2,319.6,-0.7,1.8,2471.183,13.29,0.011,290.0
2023-01-18T02:55:03,42.805,6.029,-0.034,-0.002,-0.011,102.0,101.0,101.0,13.4,1505.2,316.0,-0.8,1.8,2471.23,13.29,0.034,266.6
2023-01-18T02:58:03,42.805,6.029,-0.014,0.016,-0.015,101.0,101.0,101.0,13.4,1505.2,317.0,-0.8,1.8,2471.215,13.29,0.021,318.8
2023-01-18T03:04:03,42.805,6.029,-0.042,0.002,-0.029,102.0,101.0,101.0,13.4,1505.2,333.8,-0.8,1.8,2471.263,13.28,0.042,272.7
2023-01-18T03:07:03,42.805,6.029,-0.025,0.009,-0.024,102.0,101.0,100.0,13.4,1505.2,333.8,-0.7,1.8,2471.238,13.29,0.026,289.8
2023-01-18T03:10:03,42.805,6.029,-0.019,0.017,-0.004,101.0,101.0,101.0,13.4,1505.2,319.4,-0.8,1.8,2471.227,13.29,0.025,311.8
2023-01-18T03:13:03,42.805,6.029,-0.018,-0.003,-0.024,102.0,103.0,101.0,13.4,1505.2,326.3,-0.7,1.8,2471.246,13.29,0.018,260.5
2023-01-18T03:16:03,42.805,6.029,-0.038,-0.005,-0.008,101.0,101.0,102.0,13.4,1505.2,326.5,-0.8,1.8,2471.237,13.29,0.038,262.5
2023-01-18T03:19:03,42.805,6.029,-0.017,-0.001,-0.024,102.0,101.0,102.0,13.3,1505.2,316.1,-0.8,1.8,2471.184,13.29,0.017,266.6
2023-01-18T03:22:03,42.805,6.029,-0.049,-0.007,-0.026,102.0,102.0,101.0,13.4,1505.2,323.1,-0.8,1.8,2471.23,13.29,0.049,261.9
2023-01-18T03:25:03,42.805,6.029,-0.039,0.026,-0.009,103.0,101.0,102.0,13.4,1505.2,333.4,-0.8,1.8,2471.209,13.29,0.046,303.7
2023-01-18T03:28:03,42.805,6.029,-0.054,-0.005,-0.021,103.0,103.0,101.0,13.4,1505.2,330.5,-0.7,1.8,2471.197,13.29,0.054,264.7
2023-01-18T03:31:03,42.805,6.029,-0.035,0.016,-0.018,102.0,103.0,102.0,13.4,1505.2,333.8,-0.8,1.8,2471.207,13.29,0.038,294.6
2023-01-18T03:34:03,42.805,6.029,0.0,0.0,0.031,101.0,103.0,102.0,13.3,1505.2,321.1,-0.8,1.8,2471.207,13.29,0.0,0.0
2023-01-18T03:37:03,42.805,6.029,-0.041,0.012,-0.005,103.0,102.0,101.0,13.4,1505.2,327.6,-0.8,1.8,2471.218,13.29,0.042,286.3
2023-01-18T03:40:03,42.805,6.029,-0.025,0.016,-0.029,103.0,103.0,101.0,13.3,1505.2,332.1,-0.8,1.8,2471.204,13.29,0.029,302.6
2023-01-18T03:43:03,42.805,6.029,-0.044,0.002,-0.016,103.0,102.0,101.0,13.4,1505.2,330.1,-0.8,1.8,2471.197,13.29,0.044,272.6
2023-01-18T03:46:03,42.805,6.029,-0.06,0.0,-0.017,102.0,103.0,102.0,13.4,1505.2,326.5,-0.8,1.8,2471.206,13.29,0.06,270.0
2023-01-18T03:49:03,42.805,6.029,-0.014,0.016,0.029,103.0,103.0,102.0,13.3,1505.2,335.9,-0.7,1.8,2471.18,13.29,0.021,318.8
2023-01-18T03:52:03,42.805,6.029,-0.041,0.014,-0.002,102.0,102.0,101.0,13.4,1505.2,317.0,-0.8,1.8,2471.196,13.29,0.043,288.9
2023-01-18T03:55:03,42.805,6.029,-0.036,0.0,0.005,103.0,103.0,102.0,13.3,1505.2,316.6,-0.8,1.8,2471.209,13.29,0.036,270.0
2023-01-18T03:58:03,42.805,6.029,-0.04,0.011,-0.017,102.0,103.0,102.0,13.4,1505.2,332.0,-0.8,1.8,2471.178,13.29,0.041,285.4
2023-01-18T04:04:03,42.805,6.029,-0.033,-0.011,-0.049,102.0,103.0,101.0,13.4,1505.2,324.2,-0.7,1.8,2471.295,13.28,0.034,251.6
2023-01-18T04:07:03,42.805,6.029,-0.05,0.009,-0.02,104.0,102.0,102.0,13.4,1505.2,322.0,-0.8,1.8,2471.243,13.29,0.05,280.2
2023-01-18T04:10:03,42.805,6.029,-0.03,0.01,-0.006,103.0,103.0,102.0,13.4,1505.2,328.7,-0.8,1.8,2471.218,13.29,0.031,288.4
2023-01-18T04:13:03,42.805,6.029,-0.022,0.002,-0.019,103.0,102.0,104.0,13.3,1505.2,326.3,-0.7,1.8,2471.201,13.29,0.022,275.2
2023-01-18T04:16:03,42.805,6.029,-0.037,0.029,0.0,104.0,103.0,102.0,13.3,1505.2,327.5,-0.8,1.8,2471.238,13.29,0.047,308.1
2023-01-18T04:19:03,42.805,6.029,-0.042,0.007,-0.02,103.0,103.0,102.0,13.4,1505.2,322.0,-0.8,1.8,2471.228,13.29,0.042,279.5
2023-01-18T04:22:03,42.805,6.029,-0.041,0.024,-0.013,103.0,103.0,102.0,13.4,1505.2,335.0,-0.8,1.8,2471.198,13.29,0.047,300.3
2023-01-18T04:25:03,42.805,6.029,-0.041,0.01,-0.011,103.0,103.0,102.0,13.3,1505.2,319.5,-0.8,1.8,2471.236,13.29,0.042,283.7
2023-01-18T04:28:03,42.805,6.029,-0.043,0.022,-0.011,103.0,103.0,102.0,13.4,1505.2,337.1,-0.7,1.8,2471.194,13.29,0.048,297.1
2023-01-18T04:31:03,42.805,6.029,-0.011,0.015,-0.009,103.0,104.0,102.0,13.4,1505.2,327.5,-0.7,1.8,2471.212,13.29,0.018,323.7
2023-01-18T04:34:03,42.805,6.029,-0.015,0.031,0.013,104.0,103.0,102.0,13.3,1505.2,330.9,-0.8,1.8,2471.219,13.29,0.034,334.2
2023-01-18T04:37:03,42.805,6.029,-0.05,0.026,0.004,104.0,103.0,102.0,13.4,1505.2,316.5,-0.8,1.8,2471.18,13.29,0.056,297.5
2023-01-18T04:40:03,42.805,6.029,-0.035,0.013,-0.01,103.0,104.0,102.0,13.4,1505.2,336.3,-0.8,1.8,2471.228,13.29,0.037,290.4
2023-01-18T04:43:03,42.805,6.029,-0.043,0.015,-0.012,103.0,104.0,102.0,13.4,1505.2,323.7,-0.8,1.8,2471.248,13.29,0.045,289.2
2023-01-18T04:46:03,42.805,6.029,-0.038,-0.004,0.001,102.0,104.0,102.0,13.3,1505.2,325.4,-0.7,1.9,2471.204,13.29,0.038,264.0
2023-01-18T04:49:03,42.805,6.029,-0.032,0.011,0.002,105.0,104.0,102.0,13.4,1505.2,326.7,-0.8,1.8,2471.209,13.29,0.033,289.0
2023-01-18T04:52:03,42.805,6.029,-0.053,0.026,-0.022,103.0,102.0,102.0,13.4,1505.2,335.0,-0.8,1.8,2471.203,13.29,0.059,296.1
2023-01-18T04:55:03,42.805,6.029,-0.043,0.007,0.003,104.0,103.0,102.0,13.4,1505.2,318.1,-0.7,1.8,2471.197,13.29,0.043,279.2
2023-01-18T04:58:03,42.805,6.029,-0.044,0.001,-0.027,103.0,103.0,102.0,13.4,1505.2,322.1,-0.7,1.8,2471.19,13.29,0.044,271.3
2023-01-18T05:04:03,42.805,6.029,-0.045,0.016,-0.03,103.0,105.0,101.0,13.4,1505.2,329.4,-0.8,1.8,2471.299,13.28,0.047,289.6
2023-01-18T05:07:03,42.805,6.029,-0.037,-0.009,-0.052,103.0,103.0,102.0,13.4,1505.2,334.8,-0.8,1.9,2471.295,13.29,0.038,256.3
2023-01-18T05:10:03,42.805,6.029,-0.039,0.016,-0.028,104.0,103.0,102.0,13.4,1505.2,333.7,-0.8,1.8,2471.233,13.29,0.042,292.3
2023-01-18T05:13:03,42.805,6.029,-0.049,0.001,-0.01,103.0,103.0,102.0,13.4,1505.2,324.2,-0.8,1.8,2471.258,13.29,0.049,271.2
2023-01-18T05:16:03,42.805,6.029,-0.041,0.003,-0.014,103.0,103.0,102.0,13.4,1505.2,318.1,-0.7,1.8,2471.239,13.29,0.041,274.2
2023-01-18T05:19:03,42.805,6.029,-0.015,0.012,-0.019,104.0,104.0,102.0,13.3,1505.2,329.9,-0.8,1.8,2471.212,13.29,0.019,308.7
2023-01-18T05:22:03,42.805,6.029,-0.042,0.009,-0.03,104.0,102.0,102.0,13.4,1505.2,328.6,-0.8,1.8,2471.227,13.29,0.042,282.1
2023-01-18T05:25:03,42.805,6.029,-0.013,-0.021,-0.024,103.0,104.0,103.0,13.4,1505.2,324.2,-0.8,1.8,2471.238,13.29,0.024,211.8
2023-01-18T05:28:03,42.805,6.029,-0.038,0.012,-0.001,104.0,104.0,103.0,13.4,1505.2,338.7,-0.7,1.8,2471.177,13.29,0.039,287.5
2023-01-18T05:31:03,42.805,6.029,-0.043,0.007,-0.018,103.0,104.0,103.0,13.4,1505.2,330.2,-0.8,1.8,2471.195,13.29,0.043,279.2
2023-01-18T05:34:03,42.805,6.029,-0.058,0.021,-0.027,103.0,104.0,102.0,13.3,1505.2,329.0,-0.7,1.8,2471.211,13.29,0.061,289.9
2023-01-18T05:37:03,42.805,6.029,-0.049,0.013,-0.003,104.0,103.0,104.0,13.4,1505.2,324.4,-0.8,1.8,2471.202,13.29,0.05,284.9
2023-01-18T05:40:03,42.805,6.029,-0.036,0.019,-0.011,104.0,103.0,102.0,13.3,1505.2,325.4,-0.8,1.8,2471.177,13.29,0.04,297.8
2023-01-18T05:43:03,42.805,6.029,-0.034,0.008,-0.018,104.0,102.0,103.0,13.4,1505.2,331.6,-0.8,1.8,2471.184,13.29,0.034,283.2
2023-01-18T05:46:03,42.805,6.029,-0.02,0.005,-0.002,104.0,103.0,102.0,13.4,1505.2,322.6,-0.8,1.8,2471.249,13.29,0.02,284.0
2023-01-18T05:49:03,42.805,6.029,-0.058,0.024,-0.029,104.0,104.0,103.0,13.4,1505.2,333.0,-0.8,1.9,2471.206,13.29,0.062,292.5
2023-01-18T05:52:03,42.805,6.029,-0.057,0.004,-0.002,104.0,103.0,102.0,13.4,1505.2,321.2,-0.8,1.8,2471.24,13.29,0.057,274.0
2023-01-18T05:55:03,42.805,6.029,-0.032,-0.001,-0.02,104.0,105.0,103.0,13.4,1505.2,322.1,-0.7,1.8,2471.199,13.29,0.032,268.2
2023-01-18T05:58:03,42.805,6.029,-0.039,0.007,-0.025,104.0,103.0,102.0,13.4,1505.2,329.1,-0.8,1.8,2471.215,13.29,0.039,280.2
2023-01-18T06:04:03,42.805,6.029,-0.036,0.018,-0.012,105.0,103.0,102.0,13.4,1505.2,328.1,-0.8,1.8,2471.261,13.28,0.04,296.6
2023-01-18T06:07:03,42.805,6.029,-0.035,0.012,0.005,104.0,104.0,101.0,13.4,1505.2,333.8,-0.8,1.8,2471.277,13.29,0.037,288.9
2023-01-18T06:10:03,42.805,6.029,-0.031,0.035,0.013,104.0,104.0,103.0,13.4,1505.2,321.8,-0.7,1.8,2471.225,13.29,0.046,318.5
2023-01-18T06:13:03,42.805,6.029,-0.048,0.018,-0.003,104.0,103.0,102.0,13.4,1505.2,322.1,-0.8,1.8,2471.233,13.29,0.051,290.6
2023-01-18T06:16:03,42.805,6.029,-0.042,-0.007,-0.002,104.0,104.0,102.0,13.3,1505.2,322.8,-0.7,1.8,2471.226,13.29,0.042,260.5
2023-01-18T06:19:03,42.805,6.029,-0.032,-0.007,-0.021,104.0,104.0,103.0,13.4,1505.2,330.1,-0.8,1.8,2471.234,13.29,0.032,257.7
2023-01-18T06:22:03,42.805,6.029,-0.042,0.017,-0.015,103.0,105.0,102.0,13.4,1505.2,338.3,-0.7,1.8,2471.231,13.29,0.045,292.0
2023-01-18T06:25:03,42.805,6.029,-0.036,0.005,-0.012,104.0,103.0,102.0,13.4,1505.2,326.9,-0.8,1.8,2471.243,13.29,0.036,277.9
2023-01-18T06:28:03,42.805,6.029,-0.033,0.007,-0.003,103.0,103.0,102.0,13.4,1505.2,326.3,-0.8,1.8,2471.233,13.29,0.033,282.0
2023-01-18T06:31:03,42.805,6.029,-0.02,0.022,0.0,104.0,102.0,102.0,13.3,1505.2,332.2,-0.8,1.8,2471.201,13.29,0.029,317.7
2023-01-18T06:34:03,42.805,6.029,-0.042,0.013,-0.006,103.0,104.0,102.0,13.4,1505.2,323.7,-0.8,1.8,2471.212,13.29,0.043,287.2
2023-01-18T06:37:03,42.805,6.029,-0.028,0.018,0.013,104.0,103.0,102.0,13.4,1505.2,327.3,-0.8,1.8,2471.211,13.29,0.033,302.7
2023-01-18T06:40:03,42.805,6.029,-0.045,0.014,0.007,103.0,104.0,102.0,13.3,1505.2,321.4,-0.8,1.8,2471.203,13.29,0.047,287.3
2023-01-18T06:43:03,42.805,6.029,-0.053,0.002,-0.013,104.0,104.0,103.0,13.4,1505.2,318.4,-0.8,1.8,2471.18,13.29,0.053,272.2
2023-01-18T06:46:03,42.805,6.029,-0.05,0.003,-0.003,103.0,104.0,102.0,13.4,1505.2,316.5,-0.8,1.8,2471.21,13.29,0.05,273.4
2023-01-18T06:49:03,42.805,6.029,-0.039,-0.001,0.013,104.0,103.0,102.0,13.4,1505.2,318.2,-0.8,1.8,2471.198,13.29,0.039,268.5
2023-01-18T06:52:03,42.805,6.029,-0.035,-0.012,-0.008,104.0,103.0,102.0,13.4,1505.2,320.7,-0.8,1.8,2471.204,13.29,0.037,251.1
2023-01-18T06:55:03,42.805,6.029,-0.042,0.019,0.0,103.0,103.0,103.0,13.4,1505.2,319.5,-0.8,1.8,2471.238,13.29,0.046,294.3
2023-01-18T06:58:03,42.805,6.029,-0.041,0.01,-0.005,103.0,104.0,102.0,13.4,1505.2,315.5,-0.7,1.8,2471.172,13.29,0.042,283.7
2023-01-18T07:04:03,42.805,6.029,-0.036,0.008,-0.016,104.0,103.0,103.0,13.4,1505.2,324.5,-0.8,1.8,2471.228,13.28,0.036,282.5
2023-01-18T07:07:03,42.805,6.029,-0.034,0.017,0.015,104.0,104.0,101.0,13.4,1505.2,322.0,-0.8,1.8,2471.259,13.29,0.038,296.6
2023-01-18T07:10:03,42.805,6.029,-0.037,0.023,0.001,102.0,103.0,102.0,13.3,1505.2,326.1,-0.8,1.8,2471.249,13.29,0.043,301.9
2023-01-18T07:13:03,42.805,6.029,-0.035,0.028,-0.011,104.0,103.0,102.0,13.4,1505.2,326.7,-0.8,1.8,2471.222,13.29,0.044,308.7
2023-01-18T07:16:03,42.805,6.029,-0.03,0.008,-0.008,105.0,103.0,102.0,13.4,1505.2,336.3,-0.8,1.8,2471.229,13.29,0.031,284.9
2023-01-18T07:19:03,42.805,6.029,-0.036,0.005,-0.006,103.0,102.0,102.0,13.3,1505.2,319.6,-0.8,1.8,2471.198,13.29,0.036,277.9
2023-01-18T07:22:03,42.805,6.029,-0.016,0.004,-0.002,103.0,104.0,101.0,13.4,1505.2,323.5,-0.8,1.8,2471.204,13.29,0.016,284.0
2023-01-18T07:25:03,42.805,6.029,-0.034,0.012,-0.008,103.0,104.0,102.0,13.4,1505.2,324.6,-0.8,1.8,2471.211,13.29,0.036,289.4
2023-01-18T07:28:03,42.805,6.029,-0.037,0.023,0.011,103.0,103.0,103.0,13.3,1505.2,336.9,-0.8,1.8,2471.214,13.29,0.043,301.9
2023-01-18T07:31:03,42.805,6.029,-0.043,0.007,-0.009,104.0,103.0,102.0,13.4,1505.2,322.1,-0.8,1.8,2471.195,13.29,0.043,279.2
2023-01-18T07:34:03,42.805,6.029,-0.029,0.009,0.002,104.0,103.0,101.0,13.3,1505.2,317.5,-0.7,1.8,2471.206,13.29,0.03,287.2
2023-01-18T07:37:03,42.805,6.029,-0.038,-0.002,0.002,103.0,103.0,102.0,13.4,1505.2,318.5,-0.7,1.8,2471.148,13.29,0.038,267.0
2023-01-18T07:40:03,42.805,6.029,-0.029,0.021,0.015,104.0,104.0,101.0,13.4,1505.2,324.2,-0.8,1.8,2471.213,13.29,0.035,305.9
2023-01-18T07:43:03,42.805,6.029,-0.027,-0.008,0.001,105.0,104.0,101.0,13.4,1505.2,317.5,-0.7,1.8,2471.172,13.29,0.028,253.5
2023-01-18T07:46:03,42.805,6.029,-0.051,0.0,-0.027,103.0,103.0,102.0,13.4,1505.2,324.9,-0.8,1.8,2471.177,13.29,0.051,270.0
2023-01-18T07:49:03,42.805,6.029,-0.029,0.02,-0.002,104.0,102.0,102.0,13.3,1505.2,336.3,-0.7,1.8,2471.164,13.29,0.035,304.6
2023-01-18T07:52:03,42.805,6.029,-0.041,0.014,0.005,103.0,104.0,102.0,13.4,1505.2,328.0,-0.8,1.8,2471.207,13.29,0.043,288.9
2023-01-18T07:55:03,42.805,6.029,-0.045,0.026,0.01,104.0,104.0,101.0,13.3,1505.2,331.3,-0.8,1.8,2471.183,13.29,0.051,300.0
2023-01-18T07:58:03,42.805,6.029,-0.031,0.004,-0.034,104.0,103.0,103.0,13.4,1505.2,316.0,-0.7,1.8,2471.175,13.29,0.031,277.3
2023-01-18T08:04:03,42.805,6.029,-0.046,0.017,0.001,103.0,104.0,103.0,13.4,1505.2,320.9,-0.8,1.8,2471.233,13.28,0.049,290.3
2023-01-18T08:07:03,42.805,6.029,-0.034,0.017,-0.031,103.0,102.0,102.0,13.3,1505.2,334.2,-0.8,1.9,2471.225,13.29,0.038,296.6
2023-01-18T08:10:03,42.805,6.029,-0.039,0.029,0.012,102.0,105.0,102.0,13.4,1505.2,331.0,-0.7,1.8,2471.234,13.29,0.048,306.6
2023-01-18T08:13:03,42.805,6.029,-0.027,0.029,0.006,104.0,103.0,102.0,13.4,1505.2,335.6,-0.8,1.8,2471.224,13.29,0.039,317.0
2023-01-18T08:16:03,42.805,6.029,-0.029,0.017,-0.009,103.0,103.0,102.0,13.4,1505.2,331.8,-0.8,1.8,2471.209,13.29,0.033,300.4
2023-01-18T08:19:03,42.805,6.029,-0.069,0.029,-0.004,104.0,103.0,102.0,13.3,1505.2,330.2,-0.8,1.8,2471.197,13.29,0.074,292.8
2023-01-18T08:22:03,42.805,6.029,-0.04,-0.001,0.002,104.0,103.0,102.0,13.4,1505.2,332.6,-0.8,1.8,2471.19,13.29,0.04,268.6
2023-01-18T08:25:03,42.805,6.029,-0.035,0.015,-0.013,104.0,102.0,103.0,13.3,1505.2,323.4,-0.7,1.8,2471.163,13.29,0.038,293.2
2023-01-18T08:28:03,42.805,6.029,-0.036,0.019,0.031,103.0,104.0,102.0,13.4,1505.2,323.6,-0.7,1.8,2471.157,13.29,0.04,297.8
2023-01-18T08:31:03,42.805,6.029,-0.041,-0.004,0.0,103.0,104.0,102.0,13.3,1505.2,322.2,-0.8,1.8,2471.2,13.29,0.041,264.4
2023-01-18T08:34:03,42.805,6.029,-0.015,0.013,0.014,104.0,103.0,102.0,13.4,1505.2,330.0,-0.7,1.8,2471.139,13.29,0.019,310.9
2023-01-18T08:37:03,42.805,6.029,-0.047,0.007,-0.019,104.0,105.0,103.0,13.3,1505.2,327.0,-0.8,1.8,2471.181,13.29,0.047,278.5
2023-01-18T08:40:03,42.805,6.029,-0.038,0.018,-0.036,104.0,103.0,103.0,13.3,1505.2,327.3,-0.7,1.8,2471.175,13.29,0.042,295.3
2023-01-18T08:43:03,42.805,6.029,-0.016,0.017,-0.005,103.0,104.0,102.0,13.4,1505.2,334.9,-0.7,1.8,2471.197,13.29,0.023,316.7
2023-01-18T08:46:03,42.805,6.029,-0.023,0.018,0.001,104.0,103.0,102.0,13.4,1505.2,326.3,-0.8,1.8,2471.164,13.29,0.029,308.0
2023-01-18T08:49:03,42.805,6.029,-0.022,0.005,0.0,104.0,104.0,102.0,13.4,1505.2,316.0,-0.8,1.8,2471.199,13.29,0.022,282.8
2023-01-18T08:52:03,42.805,6.029,-0.019,0.009,-0.033,103.0,103.0,102.0,13.4,1505.2,323.1,-0.8,1.8,2471.168,13.29,0.021,295.3
2023-01-18T08:55:03,42.805,6.029,-0.011,0.002,-0.016,106.0,103.0,103.0,13.4,1505.2,334.2,-0.7,1.8,2471.195,13.29,0.011,280.3
2023-01-18T08:58:03,42.805,6.029,-0.031,0.007,-0.009,103.0,104.0,102.0,13.4,1505.2,329.7,-0.8,1.8,2471.148,13.29,0.031,282.7
2023-01-18T09:04:03,42.805,6.029,-0.025,0.008,-0.01,104.0,103.0,103.0,13.3,1505.2,325.0,-0.8,1.8,2471.214,13.29,0.026,287.7
2023-01-18T09:07:03,42.805,6.029,-0.028,0.019,-0.015,102.0,103.0,102.0,13.4,1505.2,326.5,-0.8,1.8,2471.23,13.29,0.033,304.2
2023-01-18T09:10:03,42.805,6.029,-0.022,0.023,-0.014,103.0,103.0,102.0,13.4,1505.2,335.8,-0.7,1.8,2471.204,13.29,0.031,316.3
2023-01-18T09:13:03,42.805,6.029,-0.032,-0.014,0.018,103.0,104.0,102.0,13.3,1505.2,316.0,-0.8,1.8,2471.21,13.29,0.034,246.4
2023-01-18T09:16:03,42.805,6.029,-0.011,-0.011,-0.05,104.0,103.0,102.0,13.4,1505.2,320.6,-0.7,1.8,2471.209,13.29,0.015,225.0
2023-01-18T09:19:03,42.805,6.029,-0.026,0.002,-0.012,104.0,103.0,103.0,13.4,1505.2,319.5,-0.8,1.8,2471.182,13.29,0.026,274.4
2023-01-18T09:22:03,42.805,6.029,-0.044,0.01,0.0,104.0,103.0,102.0,13.4,1505.2,332.2,-0.7,1.8,2471.19,13.29,0.045,282.8
2023-01-18T09:25:03,42.805,6.029,-0.039,0.024,0.017,103.0,103.0,101.0,13.3,1505.2,332.3,-0.8,1.8,2471.206,13.29,0.045,301.6
2023-01-18T09:28:03,42.805,6.029,-0.011,0.028,0.002,105.0,102.0,102.0,13.4,1505.2,324.0,-0.8,1.8,2471.175,13.29,0.03,338.6
2023-01-18T09:31:03,42.805,6.029,-0.041,0.015,0.011,104.0,103.0,102.0,13.3,1505.2,328.7,-0.8,1.8,2471.181,13.29,0.043,290.1
2023-01-18T09:34:03,42.805,6.029,-0.021,0.002,0.006,105.0,104.0,102.0,13.4,1505.2,328.2,-0.8,1.8,2471.163,13.29,0.021,275.4
2023-01-18T09:37:03,42.805,6.029,-0.027,0.011,0.011,104.0,103.0,103.0,13.4,1505.2,329.8,-0.8,1.8,2471.175,13.29,0.029,292.2
2023-01-18T09:40:03,42.805,6.029,-0.032,0.03,0.008,103.0,103.0,101.0,13.3,1505.2,322.9,-0.8,1.8,2471.166,13.29,0.043,313.1
2023-01-18T09:43:03,42.805,6.029,-0.029,0.017,-0.005,103.0,103.0,102.0,13.4,1505.2,324.7,-0.8,1.8,2471.183,13.29,0.033,300.4
2023-01-18T09:46:03,42.805,6.029,-0.034,0.028,-0.015,103.0,103.0,102.0,13.3,1505.2,331.8,-0.8,1.9,2471.156,13.29,0.044,309.5
2023-01-18T09:49:03,42.805,6.029,-0.026,0.016,-0.011,103.0,104.0,103.0,13.3,1505.2,338.2,-0.8,1.8,2471.189,13.29,0.03,301.6
2023-01-18T09:52:03,42.805,6.029,-0.031,0.031,-0.001,103.0,104.0,101.0,13.3,1505.2,330.9,-0.8,1.8,2471.163,13.29,0.043,315.0
2023-01-18T09:55:03,42.805,6.029,-0.056,-0.003,-0.027,103.0,102.0,103.0,13.3,1505.2,321.0,-0.8,1.8,2471.181,13.29,0.056,266.9